Temperature
12 11 10 10 9 8 8 7 7 7 6 6 6 6 6 5 5 5 5 4 4 4 4 4 3 3 3 2 2 2 1 1 -0 0 0 0 0 1 1 1 1 1 1
10 9 9 8 8 7 7 6 6 6 6 5 5 5 5 5 5 4 4 4 3 3 3 3 2 2 2 1 1 1 0 0 -0 -0 -1 -0 0 0 -0 -0 0 -0 -0
8 8 7 7 7 6 6 6 5 5 5 5 5 5 5 4 4 4 3 3 2 2 2 1 1 1 1 1 0 0 -0 -0 -0 -1 -1 -1 -0 -0 -0 -0 -0 -0 -0
7 7 6 6 6 5 5 5 5 5 5 4 4 4 4 3 3 2 2 2 1 1 1 1 0 0 0 -0 -0 -0 -1 -1 -1 -1 -1 -1 -1 -1 -1 -1 -1 -1 -0
6 6 5 5 5 5 4 4 4 4 4 4 3 3 2 2 2 1 1 1 1 0 0 0 0 -0 -0 -1 -1 -1 -1 -0 -0 -0 -0 -0 -0 -1 -1 -1 -1 -1 -0
6 5 5 4 4 4 4 4 4 4 3 3 3 2 1 1 1 0 0 0 -0 -0 -0 0 -0 -0 -0 -1 -1 -0 -0 -0 -0 -0 -0 -0 -0 -0 -0 -1 -1 -1 -1
5 4 4 4 4 4 3 3 3 3 3 2 1 1 0 0 0 -0 -0 -0 -0 -0 -1 -1 -1 -1 -1 -1 -0 -0 -0 -0 -0 -0 -0 -0 -0 -0 -0 -1 -1 -1 -0
4 4 4 4 3 3 3 3 2 2 1 1 0 0 -0 -0 -1 -1 -1 -1 -1 -1 -1 -1 -1 -1 -1 -1 -1 -0 -0 -0 -0 -0 -0 0 0 -0 -0 -0 -0 -0 -0
4 4 3 3 3 3 2 2 1 1 0 0 -0 -0 -1 -1 -1 -1 -1 -1 -1 -1 -1 -1 -1 -1 -1 -1 -1 -0 -0 -0 -0 -0 -0 0 -0 -0 -0 -0 -1 -1 -1
3 3 3 3 3 2 2 1 1 0 -0 -0 -1 -1 -1 -1 -1 -2 -2 -1 -1 -1 -1 -1 -1 -1 -1 -1 -1 -1 -0 -0 -0 0 0 -0 -0 -0 -0 -1 -1 -1 -1
3 3 3 2 2 2 1 1 0 0 -0 -0 -1 -1 -1 -2 -2 -2 -2 -2 -2 -2 -2 -1 -1 -1 -1 -1 -1 -0 -0 -0 -0 -0 0 -0 -0 -0 -0 -1 -1 -1 -1
3 3 2 2 2 1 1 0 0 -0 -0 -1 -1 -1 -2 -2 -2 -2 -2 -2 -2 -2 -2 -1 -1 -1 -1 -1 -0 -0 -0 -0 0 0 -0 -0 -0 -0 -1 -1 -1 -0 -0
3 2 2 2 1 1 1 0 0 -0 -1 -1 -1 -2 -2 -2 -2 -2 -2 -2 -2 -2 -1 -1 -1 -1 -0 -0 -0 -0 0 0 0 -0 -0 -1 -1 -1 -1 -1 -1 -0 -0
3 2 2 2 1 1 1 0 0 -0 -1 -1 -1 -2 -2 -2 -2 -2 -2 -2 -2 -2 -1 -1 -1 -0 -0 -0 0 0 0 0 0 -0 -1 -1 -1 -1 -1 -1 -1 -0 -0
3 2 2 2 1 1 1 1 0 -0 -1 -1 -1 -2 -2 -2 -2 -3 -3 -2 -2 -2 -1 -1 -1 -0 0 0 0 0 0 0 0 -0 -1 -1 -1 -1 -1 -1 -1 -1 -1
2 2 2 2 2 1 1 1 0 -0 -1 -1 -1 -2 -2 -2 -2 -2 -2 -2 -2 -2 -1 -1 -1 -0 -0 0 0 0 1 1 0 -0 -1 -1 -1 -1 -1 -1 -1 -1 -1
3 2 2 2 2 2 1 1 0 -0 -1 -1 -1 -2 -2 -2 -2 -2 -2 -2 -2 -1 -1 -1 -1 -0 -0 0 0 1 1 1 0 0 -0 -1 -1 -1 -1 -1 -1 -1 -1
3 3 2 2 2 2 1 1 0 -0 -1 -1 -1 -2 -2 -2 -2 -2 -2 -2 -1 -1 -1 -1 -1 -1 -0 0 0 1 1 1 1 1 0 -0 -0 -1 -1 -1 -1 -1 -1
3 3 3 2 2 2 1 1 0 -0 -1 -1 -1 -2 -2 -2 -2 -2 -2 -2 -1 -1 -1 -1 -1 -0 0 0 1 1 1 2 2 1 1 1 0 -0 -1 -1 -1 -2 -2
3 3 2 2 2 1 1 0 -0 -1 -1 -1 -1 -2 -2 -2 -2 -2 -1 -1 -1 -1 -1 -1 -1 -0 0 1 1 1 2 2 2 2 2 2 1 1 0 -0 -1 -2 -2
3 3 2 2 2 1 1 0 -0 -1 -1 -1 -1 -2 -2 -2 -2 -1 -1 -1 -1 -1 -1 -1 -0 0 0 1 1 2 2 2 2 3 2 2 2 1 1 0 -0 -1 -1
3 2 2 2 1 1 0 -0 -1 -1 -1 -1 -1 -1 -1 -1 -1 -1 -1 -1 -1 -1 -1 -0 -0 0 1 1 1 2 2 3 3 3 3 3 2 2 1 1 1 0 -0
2 2 2 1 1 0 -0 -0 -1 -1 -1 -1 -1 -1 -1 -1 -1 -1 -1 -1 -0 -0 -0 0 0 1 1 1 2 2 3 3 3 3 3 3 3 2 2 2 1 1 1
2 2 1 1 0 0 -0 -1 -1 -1 -1 -1 -1 -1 -1 -1 -1 -1 -1 -0 -0 0 0 0 1 1 1 2 2 3 3 3 3 3 3 3 3 3 3 2 2 2 2
2 1 1 0 0 -0 -1 -1 -1 -1 -2 -2 -2 -1 -1 -1 -1 -1 -0 -0 0 0 1 1 1 1 2 2 2 3 3 3 4 4 4 4 4 3 3 3 3 3 2
1 1 0 0 -0 -1 -1 -1 -1 -2 -2 -2 -1 -1 -1 -1 -1 -0 -0 0 0 0 1 1 1 2 2 2 3 3 3 3 4 4 4 4 4 4 4 4 3 3 3
Wind_Speed
12 12 12 11 10 11 10 9 8 8 8 9 9 9 9 8 7 7 6 6 6 5 5 5 6 5 5 5 5 5 6 6 12 13 10 10 11 14 16 19 19 18 17
12 12 12 11 11 11 11 10 9 9 8 8 8 8 8 7 6 6 6 5 5 6 6 7 8 6 8 7 6 7 8 8 9 16 14 12 13 14 15 15 15 16 16
12 13 12 12 12 11 10 9 8 8 7 7 7 7 6 5 5 4 4 4 5 6 7 7 8 8 9 8 9 9 9 10 10 13 15 13 12 12 13 13 14 12 15
12 13 12 11 10 9 9 8 8 7 7 6 6 5 4 3 3 3 4 4 6 7 8 8 8 9 10 11 10 10 11 11 12 12 13 12 11 11 10 11 12 10 11
12 12 11 9 9 9 8 8 7 6 6 5 5 4 3 2 3 3 4 5 7 9 9 9 9 12 13 11 11 11 12 11 11 11 11 11 11 10 9 9 11 11 12
12 10 9 9 8 8 7 7 7 6 5 5 4 4 4 3 6 8 7 6 8 9 10 10 10 11 13 16 17 18 17 14 13 11 10 11 13 12 10 9 10 10 7
9 9 8 8 8 7 7 6 6 5 5 5 4 4 4 4 7 8 11 7 8 8 9 9 9 10 13 11 14 18 17 19 18 13 12 12 12 11 10 11 10 10 10
7 7 7 7 7 6 6 6 5 3 4 3 3 3 3 5 8 9 12 9 8 9 9 10 10 12 11 13 14 13 13 13 14 11 10 11 11 10 9 9 10 9 8
6 6 6 6 6 6 5 4 3 3 3 3 2 3 4 5 9 11 10 7 8 10 11 11 11 11 14 17 14 13 13 12 12 14 14 13 14 13 9 6 6 7 7
5 6 6 6 6 5 4 3 3 2 3 3 4 4 4 5 9 11 11 6 8 9 10 11 13 13 16 18 13 11 12 12 12 12 11 10 8 7 8 6 6 7 6
5 6 6 5 5 4 3 3 3 3 3 4 4 4 5 6 9 11 12 8 8 9 9 10 10 15 18 18 14 9 11 13 10 9 9 8 7 5 5 5 6 5 6
6 6 5 4 3 3 3 3 3 3 3 4 4 6 5 6 7 10 13 12 11 9 9 9 10 16 18 17 12 12 15 12 7 8 7 7 6 5 5 7 7 6 5
5 4 3 3 3 2 2 2 1 2 1 2 3 4 6 7 7 10 12 15 15 10 9 14 16 17 15 11 12 14 11 7 7 7 7 7 6 6 5 6 6 6 5
5 3 2 2 1 0 0 0 0 1 1 2 3 4 6 7 8 8 9 10 12 11 10 12 15 13 11 10 10 9 7 7 7 6 7 7 6 6 5 5 4 5 5
4 2 1 1 1 1 2 2 3 3 3 3 3 4 6 8 9 12 9 8 8 9 9 6 7 8 9 9 9 9 8 8 7 7 7 7 7 6 6 5 5 5 5
3 2 1 1 2 2 2 3 3 3 4 3 4 5 5 7 11 12 12 13 13 13 7 6 8 8 9 9 9 9 8 8 8 7 6 7 7 7 7 6 6 6 6
3 2 2 2 2 2 2 2 3 4 5 6 7 8 7 9 10 11 12 13 11 10 6 6 7 8 9 9 9 8 8 9 8 7 6 6 6 6 6 7 7 7 7
2 2 2 2 2 2 2 1 1 1 2 3 5 8 10 11 11 10 11 9 7 7 6 7 7 8 8 9 9 9 9 9 8 7 6 5 6 6 6 7 8 8 8
3 2 2 1 1 0 0 0 1 1 1 2 4 5 9 10 9 9 8 5 6 6 7 7 7 7 8 9 9 9 9 8 8 7 6 6 5 5 6 6 7 9 8
3 3 2 1 1 1 1 1 1 1 1 2 4 5 6 6 5 7 6 6 6 6 7 7 7 8 8 8 9 9 9 8 9 7 7 6 5 4 5 6 7 8 8
1 1 2 2 2 2 1 2 1 1 1 2 3 5 8 5 6 6 6 6 6 6 7 7 7 8 8 8 8 9 9 8 7 7 7 6 6 5 4 6 7 8 8
1 2 2 2 2 2 2 2 2 2 2 3 3 5 8 6 5 6 6 6 6 6 6 6 6 6 7 7 8 8 8 8 8 8 7 6 5 5 6 7 7 8 8
2 3 3 3 3 4 3 2 2 2 3 3 4 4 5 6 6 6 7 7 7 7 9 8 7 7 9 9 8 7 7 7 8 7 6 5 5 5 6 7 8 8 8
3 3 4 3 3 3 3 3 3 3 3 4 4 5 5 6 6 7 7 7 7 8 10 9 9 10 13 12 10 10 9 10 10 7 5 3 4 4 5 5 5 6 6
4 4 4 3 3 3 3 3 3 4 4 4 4 5 5 6 7 7 8 8 9 9 11 11 11 12 14 14 13 14 16 15 11 6 3 3 5 5 5 4 4 4 4
4 4 4 3 3 3 3 3 3 4 4 4 4 5 5 6 7 7 8 8 9 9 11 12 14 15 15 14 15 17 17 15 14 11 7 6 6 5 5 4 5 4 4
Wind_Direction
87 89 90 88 89 90 90 90 90 88 89 93 96 94 90 85 81 79 70 53 41 21 6 351 333 321 312 310 304 296 288 282 291 297 290 286 281 282 286 286 285 284 282
90 89 87 85 85 86 86 86 88 89 90 99 100 97 93 87 79 74 61 45 27 6 348 337 326 323 312 304 298 293 289 281 284 296 300 295 284 282 281 280 282 282 280
89 89 86 84 85 86 86 86 88 91 89 89 93 94 92 88 78 68 53 29 6 345 332 324 317 315 308 304 300 294 290 289 282 288 295 294 288 284 282 280 280 279 281
89 87 85 85 87 88 86 84 82 85 87 85 85 86 86 78 63 43 22 2 346 334 326 317 310 304 296 297 298 293 294 292 288 287 291 294 292 287 281 285 289 286 286
91 90 91 90 88 88 86 82 79 79 85 86 80 69 53 49 35 22 359 348 339 331 326 319 312 308 308 310 310 307 303 298 295 292 294 297 298 299 293 290 291 295 289
94 94 96 95 92 89 87 82 79 74 69 66 59 51 39 35 27 20 5 346 334 327 322 320 316 309 315 317 315 312 309 306 304 298 296 298 301 301 298 294 292 292 291
96 97 95 94 91 89 89 80 73 64 60 56 45 44 39 23 21 8 355 347 329 320 315 315 316 315 318 314 314 314 310 305 302 300 298 298 299 301 298 294 289 287 287
93 96 98 97 93 85 79 72 62 55 53 45 39 37 28 4 359 351 348 343 328 320 315 311 311 314 317 322 321 313 308 304 301 300 292 291 291 294 292 290 292 292 286
89 94 101 103 97 89 79 65 50 54 46 35 34 27 10 345 343 343 349 336 329 324 320 319 318 317 315 320 322 314 310 309 309 305 297 292 291 294 297 303 309 314 314
90 95 96 99 101 96 85 64 47 55 45 36 26 10 355 336 332 338 346 339 333 329 324 322 320 317 316 319 320 312 311 315 316 316 314 310 304 301 307 308 309 311 314
100 96 92 93 100 98 82 67 63 60 46 27 11 353 346 337 334 338 344 346 332 324 322 323 319 315 316 317 316 308 306 311 309 311 313 315 315 311 313 313 306 302 304
104 102 100 98 100 104 97 80 65 59 44 19 1 351 344 339 336 336 337 338 334 324 319 318 314 314 317 317 319 314 315 317 316 320 325 327 327 325 324 319 314 309 300
109 107 105 94 85 104 115 103 66 46 30 358 350 341 334 335 334 334 335 335 336 334 319 317 319 319 323 324 322 324 327 330 330 335 339 340 335 331 327 325 326 325 315
129 130 131 128 112 43 40 197 225 272 301 315 322 325 326 330 336 341 338 332 332 332 325 320 320 322 331 330 330 334 337 334 336 341 342 340 341 345 348 345 338 340 343
143 153 170 205 250 290 288 260 257 252 241 264 293 302 319 327 325 326 329 329 326 323 322 325 339 343 346 345 343 341 342 347 351 351 354 356 359 3 1 354 354 356 6
154 190 231 262 278 283 298 309 297 293 317 301 289 299 301 299 314 326 332 331 332 335 342 345 345 345 344 342 342 342 344 351 351 355 2 5 7 8 8 7 11 17 19
182 223 254 271 282 289 291 300 323 353 21 26 6 353 341 332 335 338 338 335 337 348 357 349 345 343 340 340 342 345 346 346 348 355 4 10 12 13 16 19 20 22 25
218 246 248 263 278 283 279 275 284 345 353 343 338 334 341 341 341 344 345 348 353 356 353 348 343 340 339 339 342 344 344 346 350 352 360 7 14 21 27 30 31 30 29
236 245 245 255 280 291 313 85 70 53 7 335 334 338 341 339 338 348 356 2 348 346 346 345 341 338 337 337 340 343 343 345 348 350 354 358 6 21 31 33 37 35 37
259 245 206 166 80 71 77 83 70 53 7 345 344 342 340 344 351 351 356 351 348 344 342 338 336 335 336 337 339 342 344 346 349 353 351 353 356 11 26 31 35 39 44
281 277 129 112 95 87 89 88 77 51 7 351 342 338 348 349 349 348 350 350 347 343 339 335 335 337 337 337 339 341 341 341 345 348 349 354 4 17 31 39 43 50 55
85 89 95 104 96 89 91 87 80 53 20 8 352 350 358 7 0 357 353 349 343 339 335 332 332 333 333 332 332 332 333 335 341 346 348 355 14 39 52 53 55 59 62
83 88 84 79 81 87 82 73 62 45 27 15 6 3 3 3 359 356 351 346 344 346 348 346 340 338 337 329 322 316 316 319 321 321 331 352 24 53 67 67 66 67 65
77 85 87 82 78 77 76 67 57 48 38 27 18 11 4 358 354 352 350 345 345 348 351 351 345 339 339 337 331 326 320 318 314 309 320 8 50 73 82 80 74 72 70
72 79 81 79 81 82 80 73 65 57 47 34 23 12 3 359 357 353 350 349 348 350 353 354 351 346 343 341 341 340 342 350 359 2 19 57 72 78 84 86 82 78 72
70 75 75 75 77 82 86 83 73 62 46 31 20 11 4 360 357 353 351 353 352 351 353 354 353 352 352 351 349 354 2 13 23 35 50 64 66 68 75 75 74 65 59
Height
1504 1506 1508 1511 1513 1515 1518 1520 1522 1524 1525 1526 1526 1526 1526 1525 1525 1524 1523 1521 1520 1518 1516 1513 1510 1508 1506 1503 1501 1498 1495 1492 1485 1479 1478 1476 1473 1471 1468 1465 1461 1458 1454
1506 1508 1510 1512 1515 1517 1519 1522 1524 1525 1526 1526 1526 1525 1524 1523 1522 1521 1520 1518 1516 1513 1511 1508 1505 1503 1500 1498 1495 1492 1490 1487 1481 1474 1471 1469 1465 1463 1459 1456 1452 1449 1446
1509 1511 1513 1515 1517 1519 1521 1523 1525 1526 1526 1526 1525 1524 1523 1521 1520 1518 1516 1514 1512 1510 1507 1504 1501 1498 1496 1493 1490 1487 1484 1481 1477 1471 1465 1462 1458 1455 1451 1447 1444 1441 1438
1512 1514 1515 1518 1519 1521 1523 1524 1525 1525 1525 1525 1523 1522 1521 1519 1517 1516 1514 1512 1510 1507 1504 1501 1497 1494 1491 1488 1485 1482 1479 1475 1471 1466 1460 1456 1452 1448 1444 1440 1435 1433 1430
1514 1516 1518 1520 1521 1523 1524 1525 1525 1525 1524 1523 1522 1520 1519 1517 1516 1514 1512 1509 1507 1504 1501 1498 1494 1491 1488 1486 1482 1478 1475 1470 1465 1460 1455 1450 1446 1442 1438 1434 1430 1426 1423
1516 1518 1520 1521 1523 1523 1524 1525 1525 1524 1523 1522 1520 1519 1517 1516 1514 1512 1509 1506 1504 1501 1497 1494 1491 1488 1485 1482 1479 1475 1471 1466 1460 1455 1450 1446 1441 1437 1433 1429 1425 1421 1416
1519 1520 1522 1523 1524 1524 1525 1525 1524 1523 1522 1520 1518 1517 1516 1514 1512 1510 1507 1504 1501 1498 1494 1491 1488 1485 1482 1478 1474 1470 1466 1462 1457 1452 1446 1442 1437 1433 1428 1424 1420 1417 1413
1521 1522 1523 1524 1525 1525 1525 1524 1523 1522 1520 1519 1517 1516 1514 1512 1510 1508 1505 1502 1499 1496 1492 1489 1485 1482 1479 1475 1470 1465 1461 1457 1453 1448 1443 1438 1433 1429 1425 1421 1416 1412 1408
1523 1524 1525 1526 1526 1525 1525 1524 1523 1521 1520 1518 1517 1515 1513 1511 1509 1506 1502 1499 1496 1493 1490 1487 1483 1479 1476 1471 1467 1462 1457 1453 1449 1445 1440 1435 1430 1426 1422 1418 1413 1409 1405
1526 1526 1527 1527 1527 1526 1525 1524 1522 1521 1520 1518 1516 1514 1512 1510 1507 1504 1500 1496 1493 1490 1487 1484 1481 1477 1472 1468 1463 1458 1454 1449 1445 1441 1436 1432 1427 1423 1419 1416 1411 1408 1404
1527 1528 1528 1528 1527 1526 1525 1524 1523 1521 1520 1518 1516 1514 1511 1508 1506 1502 1498 1495 1491 1487 1484 1481 1478 1474 1470 1465 1461 1457 1452 1448 1443 1439 1434 1429 1425 1421 1417 1414 1410 1407 1403
1529 1529 1529 1528 1528 1527 1526 1524 1523 1522 1520 1518 1515 1513 1511 1508 1504 1501 1497 1494 1490 1487 1483 1479 1476 1472 1468 1463 1459 1455 1451 1447 1442 1437 1432 1427 1423 1419 1415 1412 1409 1406 1403
1530 1530 1529 1529 1528 1527 1526 1525 1523 1521 1519 1517 1515 1512 1509 1506 1503 1499 1496 1492 1489 1486 1483 1479 1475 1471 1467 1463 1459 1454 1450 1446 1441 1436 1432 1427 1422 1418 1415 1412 1409 1406 1403
1531 1530 1530 1529 1529 1528 1526 1525 1523 1521 1519 1517 1514 1511 1508 1505 1501 1497 1494 1491 1488 1485 1481 1478 1475 1471 1467 1463 1459 1455 1451 1446 1442 1437 1432 1427 1422 1418 1415 1412 1409 1407 1404
1531 1531 1531 1530 1529 1528 1526 1525 1523 1521 1519 1516 1513 1510 1507 1503 1500 1497 1493 1490 1487 1484 1481 1478 1475 1471 1467 1463 1460 1456 1452 1448 1443 1439 1433 1428 1424 1420 1417 1414 1411 1409 1406
1532 1531 1531 1530 1529 1527 1526 1524 1522 1520 1518 1515 1513 1510 1506 1503 1500 1497 1493 1490 1487 1485 1482 1479 1475 1472 1469 1465 1461 1457 1453 1449 1446 1441 1436 1431 1427 1423 1420 1417 1414 1411 1409
1532 1532 1531 1530 1528 1527 1525 1523 1522 1520 1518 1515 1512 1509 1506 1503 1500 1496 1493 1491 1488 1485 1483 1480 1477 1474 1470 1467 1463 1460 1456 1453 1449 1444 1440 1435 1431 1427 1423 1420 1417 1415 1412
1533 1532 1531 1529 1528 1526 1524 1522 1521 1519 1517 1515 1512 1509 1506 1503 1500 1497 1494 1492 1489 1486 1484 1481 1478 1475 1472 1469 1466 1462 1459 1455 1452 1448 1444 1439 1435 1431 1428 1424 1421 1419 1416
1532 1531 1530 1529 1527 1526 1524 1522 1520 1518 1517 1515 1512 1509 1507 1504 1501 1498 1495 1493 1490 1488 1485 1483 1480 1477 1474 1471 1469 1466 1462 1459 1455 1451 1447 1444 1440 1436 1432 1429 1426 1423 1420
1531 1530 1529 1528 1527 1525 1523 1522 1520 1519 1517 1515 1513 1510 1507 1504 1501 1499 1496 1494 1492 1489 1487 1484 1482 1479 1476 1474 1471 1469 1466 1462 1459 1455 1452 1448 1444 1441 1437 1434 1430 1427 1425
1530 1529 1528 1527 1526 1525 1523 1522 1521 1519 1518 1516 1514 1511 1509 1506 1503 1500 1498 1496 1493 1491 1488 1486 1483 1481 1479 1477 1475 1472 1469 1466 1463 1459 1456 1452 1449 1446 1443 1439 1436 1433 1431
1529 1528 1527 1526 1526 1525 1524 1522 1521 1520 1518 1517 1515 1513 1510 1508 1505 1502 1500 1497 1495 1492 1490 1488 1486 1483 1481 1480 1478 1475 1473 1470 1467 1464 1461 1457 1455 1452 1449 1446 1444 1441 1438
1530 1528 1527 1527 1526 1525 1524 1523 1522 1521 1519 1518 1516 1514 1512 1509 1507 1504 1502 1499 1497 1494 1492 1490 1488 1486 1484 1483 1481 1479 1476 1473 1471 1468 1465 1463 1461 1458 1456 1454 1452 1449 1447
1531 1529 1528 1527 1526 1526 1525 1524 1523 1522 1520 1519 1517 1515 1513 1511 1509 1507 1504 1502 1499 1497 1494 1492 1491 1489 1488 1486 1485 1483 1480 1478 1475 1473 1471 1469 1467 1465 1463 1461 1459 1457 1455
1531 1530 1529 1528 1527 1526 1526 1525 1524 1523 1521 1520 1519 1517 1515 1513 1511 1509 1507 1504 1502 1500 1498 1496 1494 1493 1491 1490 1488 1486 1484 1482 1479 1477 1476 1474 1472 1470 1469 1467 1465 1463 1462
1533 1531 1530 1529 1528 1527 1526 1526 1525 1524 1523 1521 1520 1518 1517 1515 1514 1512 1510 1507 1505 1503 1501 1499 1498 1497 1495 1494 1492 1490 1488 1486 1484 1482 1481 1479 1477 1476 1474 1473 1471 1470 1468